Location: Sabalos
(43.2860°N, 0.1414°E)
Time: 04:31:52
(UTC+00:00)

TIMED - Pass Details

Date: 05 July 2020
Orbit: 602 x 605 km, 74.1° (Epoch: 06 August)

Event Time Altitude Azimuth Distance (km) Brightness Sun altitude
Exits shadow 23:01:48 74° 137° (SE) 630 4.3 -22.5°
Maximum altitude 23:01:59 76° 109° (ESE) 625 4.4 -22.5°
Drops below altitude 10° 23:06:21 10° 23° (NNE) 1,957 7.8 -22.7°
Sets 23:08:36 0° 22° (NNE) 2,866 8.8 -22.8°
